SCP
0 0 0 0 0 0 0 0 0 0 0 0 0 0 0 0 0 0 0 1 1 1 1 0 0 0 0 0 0 0 0 0 0 0 0 0 0 0 0 0 0 0 0 0 0 0 0 0 0
0 0 0 0 0 0 0 0 0 0 0 0 0 0 0 0 0 0 0 1 1 1 0 0 0 0 0 0 0 0 0 0 0 0 0 0 0 0 0 0 0 0 0 0 0 0 0 0 0
0 0 0 0 0 0 0 0 0 0 0 0 0 0 0 0 0 0 1 1 1 1 1 1 1 0 0 0 0 0 0 0 0 0 0 0 0 0 0 0 0 0 0 0 0 0 0 0 0
0 0 0 0 0 0 0 0 0 0 0 0 0 1 1 1 0 0 1 1 1 1 1 1 1 0 0 0 0 0 0 0 0 0 0 0 0 0 0 0 0 0 0 0 0 0 0 0 0
0 0 0 0 0 0 0 0 0 0 0 0 1 1 1 1 0 0 0 1 1 1 1 1 1 1 0 0 0 0 0 0 0 0 0 0 0 0 0 0 0 0 0 0 0 0 0 0 0
0 0 0 0 0 0 0 0 0 0 0 0 1 1 1 1 0 0 0 1 1 1 1 1 1 1 1 0 0 0 0 0 0 0 0 0 0 0 0 0 0 0 0 0 0 0 0 0 0
0 0 0 0 0 0 0 0 0 0 0 0 1 1 1 1 0 0 0 1 1 1 1 1 1 1 1 0 0 0 0 0 0 0 0 0 0 0 0 0 0 0 0 0 0 0 0 0 0
0 0 0 0 0 0 0 0 0 0 0 1 1 1 1 1 1 1 1 1 1 2 1 1 1 1 1 1 0 0 0 0 0 0 0 0 0 0 0 0 0 0 0 0 0 0 0 0 0
0 0 0 0 0 0 0 0 0 0 0 1 1 1 1 1 1 1 1 1 2 2 2 1 1 1 1 1 1 0 0 0 0 0 0 0 0 0 0 0 0 0 0 0 0 0 0 0 0
0 0 0 0 0 0 0 0 0 0 1 1 1 2 1 1 1 1 1 2 2 2 2 1 1 1 1 1 1 1 1 1 1 1 1 0 0 0 0 1 1 1 0 0 0 0 0 0 0
0 0 0 0 0 0 0 0 0 0 1 1 2 2 2 1 1 1 2 2 2 2 2 1 1 1 1 1 1 1 1 1 1 1 1 1 1 1 1 1 1 1 1 1 1 1 1 0 0
0 0 0 0 0 0 0 0 0 1 1 1 1 2 2 2 2 2 2 2 2 2 2 2 2 1 1 1 1 1 1 1 1 1 1 1 1 1 1 1 1 1 1 1 1 1 1 1 1
0 0 0 0 0 0 0 0 0 1 1 1 1 1 2 2 2 2 2 2 2 2 2 2 2 2 2 2 1 1 1 1 1 1 1 1 1 1 1 1 1 1 1 1 1 1 1 1 1
0 0 0 0 0 0 0 0 0 1 1 1 1 1 2 2 2 2 2 2 2 2 2 2 2 2 2 2 1 1 1 1 1 1 1 1 1 1 1 1 1 1 1 1 1 1 1 1 1
0 0 0 0 0 0 0 0 0 1 1 1 1 1 2 2 2 2 2 2 2 2 2 2 1 1 1 1 1 1 1 1 1 1 1 1 1 1 1 1 1 1 1 1 1 1 1 1 1
0 0 0 0 0 0 0 0 1 1 1 1 1 1 2 2 2 2 2 2 2 2 2 1 1 1 1 1 1 1 1 1 1 1 1 0 0 0 0 1 1 1 1 1 1 1 1 1 1
0 0 0 0 0 0 0 0 1 1 1 1 1 1 1 1 1 1 1 2 2 2 1 1 1 1 1 1 1 0 0 0 0 0 0 0 0 0 0 0 0 0 0 0 1 1 1 1 1
0 0 0 0 0 0 0 0 1 1 1 1 1 1 1 1 1 1 1 1 1 1 1 1 1 1 0 0 0 0 0 0 0 0 0 0 0 0 0 0 0 0 0 0 0 0 1 1 1
0 0 0 0 0 0 0 0 1 1 1 1 1 1 1 1 1 1 1 1 1 1 1 1 1 0 0 0 0 0 0 0 0 0 0 0 0 0 0 0 0 0 0 0 0 0 0 0 0
0 0 0 0 0 0 0 0 0 1 1 1 1 1 1 1 1 1 1 1 1 1 1 1 0 0 0 0 0 0 0 0 0 0 0 0 0 0 0 0 0 0 0 0 0 0 0 0 0
0 0 0 0 0 0 0 0 0 0 0 0 0 0 1 1 1 1 1 0 0 0 0 0 0 0 0 0 0 0 0 0 0 0 0 0 0 0 0 0 0 0 0 0 0 0 0 0 0
0 0 0 0 0 0 0 0 0 0 0 0 0 0 0 0 0 0 0 0 0 0 0 0 0 0 0 0 0 0 0 0 0 0 0 0 0 0 0 0 0 0 0 0 0 0 0 0 0
0 0 0 0 0 0 0 0 0 0 0 0 0 0 0 0 0 0 0 0 0 0 0 0 1 1 0 0 0 0 0 0 0 0 0 0 0 0 0 0 0 0 0 0 0 0 0 0 0
0 0 0 0 0 0 0 0 0 0 0 0 0 0 0 0 0 0 0 0 0 0 0 1 1 1 1 0 0 0 0 0 0 0 0 0 0 0 0 0 0 0 0 0 0 0 0 0 0
0 0 0 0 0 0 0 0 0 0 0 0 0 0 0 0 0 0 0 0 0 0 0 1 1 1 1 0 0 0 0 0 0 0 0 0 0 0 0 0 0 0 0 0 0 0 0 0 0
0 0 0 0 0 0 0 0 0 0 0 0 0 0 0 0 0 0 0 0 0 0 0 0 1 1 1 0 0 0 0 0 0 0 0 0 0 0 0 0 0 0 0 0 0 0 0 0 0
0 0 0 0 0 0 0 0 0 0 0 0 0 0 0 0 0 0 0 0 0 0 0 0 1 1 0 0 0 0 0 0 0 0 0 0 0 0 0 0 0 0 0 0 0 0 0 0 0
0 0 0 0 0 0 0 0 0 0 0 0 0 0 0 0 0 0 0 0 0 0 0 0 0 0 0 0 0 0 0 0 0 0 0 0 0 0 0 0 0 0 0 0 0 0 0 0 0
0 0 0 0 0 0 0 0 0 0 0 0 0 0 0 0 0 0 0 0 0 0 0 0 0 0 0 0 0 0 0 0 0 0 0 0 0 0 0 0 0 0 0 0 0 0 0 0 0
0 0 0 0 0 0 0 0 0 0 0 0 0 0 0 0 0 0 0 0 0 0 0 0 0 0 0 0 0 0 0 0 0 0 0 0 0 0 0 0 0 0 0 0 0 0 0 0 0
Wind_Speed
10 12 11 9 7 6 6 8 7 8 8 8 8 10 16 15 11 11 11 19 23 21 18 17 15 14 13 12 11 12 12 11 11 11 10 10 10 10 10 9 9 9 9 9 9 9 9 9 9
11 14 11 7 7 5 2 5 9 6 5 4 6 11 16 15 14 15 15 20 23 20 17 16 16 15 14 13 12 11 11 11 11 11 10 10 9 9 9 8 8 8 8 8 8 9 8 8 8
15 18 9 9 11 6 1 1 6 6 4 3 6 10 11 11 13 14 16 20 21 19 17 17 17 15 14 13 12 11 11 11 11 10 10 9 9 8 8 7 7 7 7 7 7 8 7 7 7
10 11 9 10 13 8 1 2 5 5 3 3 6 11 10 8 12 16 17 20 20 19 18 17 17 15 14 13 12 11 11 11 10 10 9 9 8 8 7 7 6 6 6 6 7 7 7 6 5
11 9 12 14 15 7 2 4 7 6 4 6 7 13 12 9 15 17 16 18 19 20 18 17 17 15 13 12 11 11 10 10 10 9 9 8 7 7 6 6 6 6 5 6 6 6 6 5 4
9 11 13 13 9 5 2 3 5 6 5 5 5 12 8 10 13 14 15 15 19 20 19 16 16 15 14 12 11 11 10 10 9 9 8 7 7 6 6 5 5 5 5 5 5 6 6 5 4
11 12 15 16 10 8 2 2 5 5 5 6 6 9 5 7 10 13 12 14 18 19 18 15 14 13 12 12 11 10 9 9 8 8 7 6 6 6 6 5 5 5 5 5 5 5 6 6 5
10 11 17 15 11 6 3 2 3 5 4 5 4 7 9 9 10 13 11 14 17 16 16 14 13 11 10 10 10 9 9 9 8 7 7 6 6 7 7 7 7 7 6 6 6 6 6 6 6
11 12 12 11 10 7 6 4 4 3 2 4 9 12 14 12 11 12 11 13 14 13 12 12 12 10 9 10 10 10 9 8 8 7 8 7 5 6 7 8 9 9 8 7 7 7 7 7 8
9 10 10 9 10 9 9 8 8 4 4 6 10 12 13 12 12 10 10 13 13 12 11 10 10 9 8 7 8 7 7 7 5 4 6 5 3 2 3 6 9 10 9 9 9 9 8 8 6
9 9 10 10 9 9 9 7 7 5 5 6 7 9 7 10 11 10 9 10 11 10 9 9 8 5 4 4 5 2 2 4 4 4 4 2 1 1 0 2 4 5 7 5 6 7 6 6 4
9 8 8 9 8 8 7 6 5 6 7 7 7 7 7 8 8 10 9 9 9 9 8 8 8 6 4 3 3 2 2 2 2 2 1 1 0 1 1 1 0 2 2 2 2 2 4 4 4
9 8 8 8 7 6 5 5 4 4 5 7 8 8 7 8 9 10 9 9 8 8 8 8 7 6 4 3 1 2 2 1 2 2 2 2 1 0 1 0 1 2 1 1 2 2 2 3 4
9 10 9 8 8 4 2 4 3 3 3 5 7 8 8 9 9 9 9 9 8 7 8 7 7 6 5 3 2 1 2 2 2 3 2 2 0 0 1 1 1 2 2 2 2 3 3 4 4
10 11 9 8 8 6 2 3 2 3 4 5 8 8 9 9 8 10 9 9 9 8 8 6 7 6 5 4 2 2 2 3 2 2 2 2 0 0 1 1 1 1 2 2 2 4 3 4 5
12 11 8 7 6 6 4 2 2 3 5 7 9 10 10 8 7 9 9 8 9 9 7 5 7 7 6 4 3 2 2 2 1 2 2 2 1 1 1 1 0 1 2 2 2 3 2 2 3
9 9 6 6 4 6 2 2 5 1 4 8 9 9 11 9 7 9 10 10 10 8 7 7 7 6 5 4 2 2 2 1 1 2 3 2 1 2 2 1 1 2 2 2 3 1 1 2 3
8 7 2 3 2 3 1 4 8 7 6 8 9 9 10 9 8 9 9 10 9 8 7 7 6 4 3 3 2 1 2 1 1 2 3 2 1 2 2 2 1 2 2 2 1 2 2 3 4
8 8 6 4 5 4 2 3 5 5 5 8 9 9 9 8 8 8 9 10 9 7 6 6 5 3 2 2 1 1 1 0 1 2 3 2 1 1 1 2 2 2 2 2 3 3 4 4 3
7 5 6 4 7 5 2 2 2 3 4 6 8 10 10 10 9 8 8 8 8 7 6 6 5 3 2 2 1 1 1 1 1 2 3 2 1 1 2 1 2 2 2 3 3 3 2 4 3
8 5 5 6 4 1 1 1 2 5 4 5 7 9 10 11 11 9 9 8 8 7 6 5 5 4 2 2 0 1 1 1 1 1 1 2 1 1 2 2 3 3 4 3 3 3 3 3 4
8 4 6 6 5 3 4 2 3 7 6 6 6 7 8 9 10 9 9 8 8 7 7 7 5 3 2 1 2 2 2 2 2 2 2 1 1 1 2 2 2 2 3 4 5 3 3 3 3
7 5 6 8 7 4 4 1 5 8 8 9 9 9 10 10 10 9 9 7 7 7 7 7 6 4 2 1 2 2 3 3 3 3 3 2 2 3 2 2 1 1 3 4 4 5 4 3 4
6 4 5 7 6 3 6 3 4 6 8 11 10 10 10 11 10 9 9 8 7 7 7 7 7 4 2 1 1 2 3 4 4 4 4 3 2 2 1 1 2 2 3 4 4 4 5 4 5
5 5 2 1 2 6 7 2 5 6 7 10 12 12 12 11 10 10 10 8 7 7 6 7 7 5 3 1 0 1 2 3 4 3 3 4 3 3 4 4 3 3 3 4 4 4 5 5 5
7 7 5 5 3 3 4 4 6 7 8 9 11 11 11 11 10 10 10 9 8 7 6 6 6 5 3 1 1 1 1 2 2 4 4 4 4 4 4 4 3 4 4 6 5 5 5 5 5
7 7 8 6 6 4 2 7 9 8 9 10 11 11 11 11 11 10 9 8 7 7 6 6 7 5 3 1 1 2 1 1 2 3 3 3 4 5 5 5 5 5 5 5 5 4 6 6 5
8 8 6 5 4 2 4 2 6 10 10 10 11 11 11 10 10 10 9 8 7 6 6 6 5 4 2 1 1 1 1 1 1 2 3 3 4 4 5 5 5 5 5 5 5 5 5 6 5
7 6 5 5 5 1 0 1 6 8 8 9 11 12 11 10 10 9 9 8 7 7 8 6 5 5 3 2 1 1 1 1 1 2 3 3 3 4 5 5 5 5 6 6 5 6 6 6 6
9 7 5 4 5 4 1 2 5 7 8 8 9 11 11 10 10 10 10 9 7 6 6 6 5 4 3 2 2 2 1 2 2 3 3 3 4 4 5 5 5 6 6 5 5 7 7 6 7
Wind_Direction
222 236 235 249 248 246 299 322 10 21 23 36 41 63 64 57 69 100 124 116 114 119 124 125 122 121 122 123 125 129 129 128 127 125 123 120 116 112 109 105 101 97 93 90 88 87 86 88 89
243 243 242 245 248 259 252 313 340 7 13 35 68 74 79 71 85 111 116 115 117 122 130 125 124 122 121 121 122 126 128 129 129 128 128 126 124 120 116 114 110 105 99 95 93 91 90 91 92
257 259 261 253 254 259 200 351 321 324 4 18 68 71 69 83 92 107 118 122 120 123 123 124 128 125 124 123 123 125 127 129 131 131 132 131 129 127 123 121 118 113 105 100 98 96 95 95 95
252 246 241 256 272 279 317 355 305 319 358 17 87 86 76 67 100 115 128 125 125 126 124 127 129 127 127 126 126 128 129 130 131 132 134 135 134 132 131 131 127 121 115 112 111 107 105 105 104
248 261 254 260 268 284 348 354 321 324 358 1 70 94 91 86 106 125 131 129 128 124 124 129 130 129 129 130 131 132 134 135 136 137 140 142 144 146 145 141 134 133 130 127 129 126 124 121 121
257 257 266 273 280 287 295 338 318 341 352 9 68 102 97 117 123 133 129 131 126 123 123 128 132 133 134 135 137 138 140 141 143 146 148 150 152 154 155 153 154 154 150 147 146 146 148 148 152
264 281 282 286 290 283 295 356 318 346 349 1 32 89 108 120 129 124 127 125 119 120 125 135 136 138 139 140 142 142 146 149 152 156 157 161 166 172 176 174 175 171 168 168 168 169 169 172 178
267 284 284 285 286 296 342 348 328 332 25 9 21 101 135 143 134 128 128 113 113 119 128 135 140 143 149 150 152 154 160 163 164 168 172 181 194 201 201 196 189 185 185 189 191 191 190 190 195
261 265 277 297 316 336 349 326 310 28 82 67 57 92 133 138 138 134 130 118 113 115 122 132 137 148 158 157 155 165 173 176 178 183 191 199 211 205 202 217 186 191 194 201 205 208 206 204 208
249 266 288 316 326 333 331 325 321 326 10 73 85 94 124 143 142 135 135 127 120 121 127 130 136 151 161 154 150 179 179 171 192 185 189 205 224 227 205 177 186 199 204 210 213 215 216 217 219
261 277 304 312 326 321 312 327 340 334 27 31 84 107 130 137 128 124 123 119 118 124 126 123 123 115 120 124 150 162 149 148 192 183 184 202 242 263 181 158 184 205 215 221 213 210 223 224 230
263 280 291 302 314 303 305 321 349 24 66 88 96 119 125 120 127 119 112 116 123 124 120 111 112 103 88 85 112 133 122 153 165 143 162 135 97 345 352 13 176 201 210 219 222 214 226 245 255
265 268 274 281 284 299 324 352 4 53 92 109 119 125 124 114 110 112 113 117 117 113 105 102 101 104 105 91 70 86 76 78 99 93 70 57 57 315 292 291 295 279 254 222 235 236 242 247 258
300 302 297 303 298 291 343 9 10 84 85 111 118 115 105 102 103 106 108 110 115 116 105 106 111 107 100 98 90 83 89 79 72 84 78 78 91 196 246 249 252 260 254 229 227 239 233 236 241
290 284 290 304 306 300 338 357 316 131 143 135 120 107 97 95 103 107 112 115 119 112 111 114 112 107 101 92 80 81 90 95 95 108 118 104 83 238 287 257 239 261 266 248 233 247 240 233 236
288 283 280 281 290 273 257 252 238 163 162 130 119 114 107 99 100 102 103 102 102 108 107 105 104 104 101 91 74 62 54 68 88 107 95 72 39 20 314 286 198 313 282 264 247 237 258 261 256
275 272 264 275 290 285 298 130 121 222 153 126 123 125 121 116 105 104 108 106 100 101 101 95 91 101 106 105 104 105 96 71 63 85 84 60 30 29 342 329 31 314 295 287 296 6 322 300 290
289 291 312 270 294 277 43 123 148 187 163 135 124 125 123 122 113 111 109 106 107 107 105 101 99 94 106 111 127 122 123 148 133 103 94 75 41 52 351 302 15 330 311 315 321 317 291 276 273
306 329 333 337 317 297 94 121 161 155 146 126 125 130 125 117 111 114 116 116 117 118 116 112 109 107 96 86 81 87 105 216 144 123 116 114 67 28 303 327 344 304 301 313 314 308 296 279 259
301 299 303 271 244 244 127 98 113 123 127 128 137 137 131 130 128 131 134 134 132 129 125 130 129 128 123 98 78 103 50 292 144 95 119 118 83 355 305 19 316 328 320 290 280 273 279 296 302
293 299 294 285 259 242 104 99 129 122 135 143 141 143 145 147 148 152 147 142 142 144 150 135 128 133 113 93 349 32 33 298 30 55 108 86 36 330 337 326 318 334 318 309 315 306 291 286 293
298 316 302 296 285 253 223 200 177 154 166 162 159 155 156 150 151 153 153 152 156 158 147 130 133 128 114 100 29 351 348 2 8 4 38 27 335 300 289 288 304 315 311 312 309 326 319 299 291
303 334 337 352 337 324 289 269 155 165 181 176 174 168 159 155 156 159 157 159 161 156 145 140 134 128 120 63 43 358 360 357 1 3 2 347 299 269 254 261 279 311 301 312 321 320 312 305 298
292 316 352 25 6 300 251 229 157 177 185 172 171 168 162 162 160 158 160 159 163 159 149 144 138 139 136 124 33 25 4 351 338 330 323 323 313 307 327 341 28 341 323 323 317 310 300 289 293
273 284 304 351 239 249 233 217 139 167 172 164 165 166 165 163 164 164 163 163 163 164 151 142 139 141 149 159 77 9 353 319 297 306 335 341 331 345 27 19 4 333 319 305 297 294 287 286 284
261 259 264 279 255 209 196 136 132 145 140 146 151 157 161 168 169 167 170 168 170 162 148 141 139 146 155 165 128 22 326 306 348 21 357 332 329 344 359 347 328 310 301 299 308 305 292 284 281
275 274 279 280 306 310 139 127 135 139 147 151 155 161 167 168 168 172 173 168 158 151 150 145 140 139 141 142 124 226 213 318 355 346 313 322 348 328 352 343 328 315 308 302 300 288 288 286 280
270 289 292 297 307 339 6 128 148 163 170 167 166 167 165 167 170 169 161 149 143 142 136 130 131 132 134 162 250 304 50 299 315 307 321 317 312 313 312 307 307 304 300 295 291 289 286 292 287
273 273 297 308 315 359 127 3 148 173 170 176 175 170 168 172 169 159 147 141 145 148 144 143 146 151 167 189 188 290 278 308 313 287 289 303 311 309 300 298 297 297 291 285 282 282 282 281 280
286 274 281 294 316 319 89 117 139 165 166 178 173 167 166 170 166 156 147 146 153 152 148 151 158 167 175 178 185 218 250 295 304 309 321 316 304 297 299 301 299 294 291 288 283 282 287 288 286